Regional Weather Roundup
Issued by NWS Newport/Morehead, NC

Current Version | Previous Version | Graphics & Text | Print | Product List | Glossary On
Versions: 1 2 3 4 5 6 7 8 9 10 11 12 13 14 15 16 17 18 19 20 21 22 23 24 25 26 27 28 29 30 31 32 33 34 35 36 37 38 39 40 41 42 43 44 45 46 47 48 49 50
000 ASUS42 KMHX 212025 RWRMHX WEATHER ROUNDUP FOR EASTERN NORTH CAROLINA NATIONAL WEATHER SERVICE NEWPORT/MOREHEAD CITY NC 400 PM EDT THU SEP 21 2017 NOTE: "FAIR" INDICATES FEW OR NO CLOUDS BELOW 12,000 FEET WITH NO SIGNIFICANT WEATHER AND/OR OBSTRUCTIONS TO VISIBILITY NCZ015>017-031-032-045>047-102-103-212100- NORTH COAST CITY SKY/WX TMP DP RH WIND PRES REMARKS EDENTON MOSUNNY 88 67 50 CALM 29.99S ELIZABETH CITY MOSUNNY 85 72 65 E10 29.98F KITTY HAWK CLEAR 78 67 69 CALM 29.99S MANTEO SUNNY 80 65 60 E9 30.00S $$ NCZ045>047-081-094-103-104-212100- CENTRAL COAST CITY SKY/WX TMP DP RH WIND PRES REMARKS FRISCO SUNNY 85 74 69 S5 29.99S $$ NCZ095-097-098-100-101-212100- SOUTHERN COAST CITY SKY/WX TMP DP RH WIND PRES REMARKS BEAUFORT LGT RAIN 78 74 87 W7 30.00R CEDAR ISLAND NOT AVBL JACKSONVILLE TSTM 71 68 90 E20G26 30.01R FOG PINEY ISLAND N/A N/A N/A N/A CALM 29.99F WILMINGTON CLOUDY 83 74 74 S8 29.98S $$ NCZ011>013-027>030-043-044-078>080-089-090>093-098-212100- COASTAL PLAIN CITY SKY/WX TMP DP RH WIND PRES REMARKS AHOSKIE N/A 84 65 52 CALM 30.00S CLINTON PTSUNNY 78 67 71 N9G23 29.99R ELIZABETHTOWN NOT AVBL GOLDSBORO MOSUNNY 73 73 100 CALM 29.98F GREENVILLE MOSUNNY 86 68 54 N5 30.01S HAVELOCK RAIN 72 70 93 SW5 29.99F FOG KENANSVILLE MOSUNNY 82 66 57 N13 30.00R KINSTON HVY RAIN 79 68 69 N17G26 30.01R NEW BERN CLOUDY 72 70 93 CALM 30.00F FOG RICHLANDS PTSUNNY 76 65 68 E16G23 30.00R ROCKY MOUNT CLOUDY 75 70 84 CALM 30.01S WASHINGTON CLOUDY 85 67 54 NE5 29.99S WHITEVILLE SUNNY 87 69 54 CALM 29.96S $$ AMZ130-135-150-152-154-156-158-170-250-252-270-ANZ085-086-088-633-658-670-212100- MARINE OBSERVATIONS STATION/POSITION TIME TEMP WIND PRES WAVE SWELL AIR SEA DIR/SP/G HT/PER HT/PER (UTC) (F) (DEG/KT/KT) (MB) (FT/S) (FT/S) CHESAPEAKE LIGHT NOT AVBL 64 E VA BEACH 1950 72 72 350/ 8/ 8 1016.1 7/11 7/11 DUCK 2000 76 77 50/ 9/ 10 1015.3 2 E DUCK 2000 76 N/A 4/11 3/11 OREGON INLET 2000 77 77 20/ 9/ 10 1015.4 13E OREGON INLT 1948 76 N/A 6/11 5/11 HATTERAS CG 2000 81 77 30/ 7/ 8 1015.4 DIAMOND BUOY 1950 78 78 40/ 4/ 6 1015.4 5/11 5/11 CAPE LOOKOUT 2000 79 130/ 4/ 5 1015.2 BEAUFORT LAB 2000 78 76 300/ 5/ 8 1015.3 30 SE NEW RVR IN 2008 81 130/ 4/ 6 1015.4 30 SE NEW RVR IN NOT AVBL 27 SE WRIGHTSVLE 2008 81 81 150/ 6/ 8 1015.3 5 SE WRIGHTSVLE 2008 80 80 190/ 12/ 16 1015.2 225 S CAPE HAT 1950 79 83 50/ 2/ 4 1015.4 5/11 5/11 41 SE CHARLESTON 2010 81 81 150/ 4/ 6 1015.0 $$

USA.gov is the U.S. government's official web portal to all federal, state and local government web resources and services.